Regional Weather Roundup
Issued by NWS Grand Forks, ND

Home | Current Version | Previous Version | Text Only | Print | Product List | Glossary On
Versions: 1 2 3 4 5 6 7 8 9 10 11 12 13 14 15 16 17 18 19 20 21 22 23 24 25 26 27 28 29 30 31 32 33 34 35 36 37 38 39 40 41 42 43 44 45 46 47 48 49 50
000
ASUS43 KFGF 301131
RWRFGF
PRAIRIE TO PINES  WEATHER ROUNDUP
NATIONAL WEATHER SERVICE EASTERN NORTH DAKOTA/GRAND FORKS ND
600 AM CDT SAT MAY 30 2015

 **SATELLITE DATA USED TO AUGMENT SKY COVER AT AUTOMATED STATIONS**
 *****  WEATHER ACROSS EASTERN NORTH DAKOTA  *****

CITY           SKY/WX    TMP DP  RH WIND       PRES   REMARKS
GRAND FORKS    PTCLDY    30  25  81 N7        30.39R WCI  23
GRAND FRKS AFB CLEAR     29  24  82 N8        30.39R WCI  21
GRAND FRKS NWS   N/A     32 N/A N/A N3          N/A
DEVILS LAKE    CLEAR     30  21  69 NE6       30.40R WCI  24
FARGO          CLEAR     35  28  75 N13       30.36R
WAHPETON ARPT  SUNNY     34  30  86 N15       30.33R WCI  24
$$

 ***** WEATHER ACROSS CENTRAL AND WESTERN NORTH DAKOTA  *****

CITY           SKY/WX    TMP DP  RH WIND       PRES   REMARKS
BISMARCK       CLEAR     32  30  92 SE5       30.39R
MINOT          CLEAR     33  28  81 E6        30.39R
JAMESTOWN      CLEAR     34  26  72 NE8       30.38R
MINOT AFB      CLEAR     34  34  99 E6        30.39R
GARRISON         N/A     37  30  75 E8        30.38R
WILLISTON      PTCLDY    41  33  73 E6        30.32R
DICKINSON      CLEAR     32  29  88 E7        30.30R
HETTINGER      CLEAR     32  28  85 CALM      30.31S
$$

 *****  OTHER AIRPORT OBSERVATIONS IN OUR AREA  *****

CITY           SKY/WX    TMP DP  RH WIND       PRES   REMARKS
WALHALLA         N/A     30  27  86 MISG      30.42R
GRAFTON AIRPOR FAIR      32  27  80 NW7       30.42R
VALLEY CITY AR FAIR      32  27  80 NE9       30.37S WCI  24
CANDO          FAIR      32  25  74 CALM      30.42R
CAVALIER APRT  FAIR      32  25  74 N8        30.42R WCI  25
GWINNER        NOT AVBL
ROLLA          FAIR      28  27  93 CALM      30.41R
 ***** THE ABOVE OBSERVATIONS ARE NON NWS ARE NOT QUALITY
       CONTROLLED AND MAY MIS-REPORT RAIN FOR SNOW...
$$

  *****  WEATHER ACROSS NORTHERN MINNESOTA  *****

CITY           SKY/WX    TMP DP  RH WIND       PRES   REMARKS
FLAG ISLAND    CLOUDY    37  27  65 N16       30.35S
WARROAD        CLOUDY    34  28  80 N6        30.36S
ROSEAU         CLEAR     30  27  86 N5        30.37R
HALLOCK        CLEAR     30  25  80 N7        30.40R WCI  23
THF RVR FALLS  CLEAR     34  27  75 N8        30.36R
BAUDETTE       CLOUDY    36  26  67 N13       30.33R
WASKISH        CLOUDY    36  30  80 N5        30.33R
CROOKSTON      CLEAR     32  28  86 N7        30.39R
STEPHEN NDAWN    N/A     30  27  86 N6          N/A  WCI  24
GREENBUSH NDAW   N/A     30  28  93 NW6         N/A  WCI  24
$$
  *****  WEATHER ACROSS CENTRAL AND WEST MINNESOTA  *****

CITY           SKY/WX    TMP DP  RH WIND       PRES   REMARKS
FOSSTON        CLEAR     30  28  93 N12       30.34R WCI  21
BEMIDJI        CLEAR     35  32  90 N5        30.30R
PARK RAPIDS    CLEAR     37  32  82 N13       30.27R
ELBOW LAKE     FAIR      38  36  91 N7        30.29R
WADENA         CLEAR     36  32  87 N10       30.27R
DETROIT LAKES  CLEAR     36  32  87 N8        30.31R
MOORHEAD       CLEAR     34  28  80 N13       30.36R WCI  25
FERGUS FALLS   CLEAR     37  32  81 N9        30.32R
MORRIS MN      CLEAR     39  36  87 N9        30.27R
STAPLES        CLEAR     37  36  93 N9        30.26R
$$
  *****  WEATHER ELSEWHERE ACROSS MINNESOTA  *****

CITY           SKY/WX    TMP DP  RH WIND       PRES   REMARKS
DULUTH         PTCLDY    42  35  76 N12       30.18R
INTRNTL FALLS  CLOUDY    36  26  67 N13G20    30.31R
ELY            NOT AVBL
CLOQUET        CLEAR     39  36  87 N12G18    30.21R
WHEATON        CLEAR     34  30  86 N12G17    30.33R
BRAINERD       CLEAR     41  34  76 N14G20    30.24R
HIBBING        FAIR      37  33  85 N12       30.23R
ALEXANDRIA     CLEAR     40  35  83 N9G18     30.26R
SAINT CLOUD    CLEAR     43  37  79 N10       30.20R
MINNEAPOLIS    PTCLDY    47  39  74 N13G22    30.16R
$$

  *****  WEATHER ACROSS SOUTH DAKOTA  *****

CITY           SKY/WX    TMP DP  RH WIND       PRES   REMARKS
SIOUX FALLS    MOCLDY    44  38  79 N13       30.23R
BROOKINGS      PTCLDY    39  34  81 N13       30.26R
WATERTOWN      CLEAR     36  30  79 N14       30.27R
HURON          PTCLDY    38  34  85 N12       30.31R
SISSETON         N/A     36  32  85 N15       30.31R
ABERDEEN       CLEAR     38  32  79 N10       30.35R
MITCHELL       CLEAR     40  37  89 N9        30.29R
PIERRE         CLEAR     36  33  89 NE7       30.32R
MOBRIDGE       CLEAR     41  35  79 VRB6      30.33R
RAPID CITY     CLEAR     36  34  92 S3        30.30S
$$

  *****  SOME WEATHER IN NEARBY STATES *****

CITY           SKY/WX    TMP DP  RH WIND       PRES   REMARKS
GLASGOW MT     MOCLDY    44  33  65 E15       30.19S
GREAT FALLS MT MOCLDY    51  45  79 S7        30.03S
CHEYENNE WY    CLOUDY    45  43  93 SW13      30.29F
SCOTTSBLUFF NE CLOUDY    47  45  93 E5        30.29F
OMAHA NE       LGT RAIN  51  49  92 N15       30.11F FOG
DES MOINES IA  DRIZZLE   57  53  86 N12       30.03R FOG
DAVENPORT IA   CLOUDY    66  63  90 S9        29.95R
CHICAGO IL     LGT RAIN  68  65  90 SW5       29.96R
EAU CLAIRE WI  CLOUDY    51  45  79 N10       30.08R
LA CROSSE WI   CLOUDY    57  53  86 N15G28    30.02R
$$

  *****  SOME NATIONAL WEATHER *****

CITY           SKY/WX    TMP DP  RH WIND       PRES   REMARKS
LA GUARDIA NY  MOSUNNY   68  62  81 S7        30.21R
RALEIGH NC     MOSUNNY   68  66  93 SE5       30.22R
ATLANTA GA     PTCLDY    67  61  81 SE5       30.18R
NEW ORLEANS LA PTCLDY    74  70  87 CALM      30.04R
OKLAHOMA CITY  CLOUDY    61  56  83 N21       30.08S
ALBUQUERQUE NM PTCLDY    59  45  59 E18G30    30.25R
SALT LAKE CITY PTCLDY    58  44  60 S7        30.10S
LOS ANGELES CA   N/A     57  57 100 CALM      29.92S FOG
BOISE ID       CLOUDY    69  43  38 SE8       29.91F
SEATTLE WA     PTCLDY    51  46  83 SW5       29.96R
$$

*** WEATHER ACROSS MANITOBA...SASKATCHEWAN AND ONTARIO ***
                ***ONTARIO***

CITY           SKY/WX    TMP DP  RH WIND       PRES   REMARKS
GERALDTON      MOCLDY    36  34  93 NW14G21   30.12R
THUNDER BAY    MOCLDY    43  34  70 NW12G21   30.18R
SIOUX LOOKOUT  MOCLDY    30  19  64 N14G22    30.30R WCI  20
TORONTO        PTSUNNY   72  63  73 SW13      29.96S
BIG TROUT LK   FLURRIES  27  25  93 N7        30.28R WCI  19
PICKLE LAKE    CLOUDY    30  21  69 NW12G23   30.23  WCI  21
DRYDEN         CLOUDY    32  23  69 N5        30.31R
KENORA         MOCLDY    34  23  64 N9        30.34R
$$
                *** MANITOBA***

CITY           SKY/WX    TMP DP  RH WIND       PRES   REMARKS
BRANDON        PTCLDY    27  21  80 NE6       30.43R WCI  20
DAUPHIN        CLOUDY    32  28  86 W6        30.44R
ISLAND LAKE    CLOUDY    30  23  74 N9        30.40S WCI  22
PILOT MOUND      N/A     28  23  80 NE3         N/A
THE PAS        PTCLDY    28  21  74 S5        30.42R WCI  23
THOMPSON       PTCLDY    27  23  86 W3        30.39S
WINNIPEG       MOCLDY    30  25  80 N10       30.43R WCI  21
LYNN LAKE      CLEAR     30  25  80 SW6       30.31F WCI  24
CHURCHILL      MOCLDY    30  25  80 W8        30.28F WCI  23
$$
                ***SASKATCHEWAN***

CITY           SKY/WX    TMP DP  RH WIND       PRES   REMARKS
ESTEVAN        MOCLDY    36  28  75 E15       30.37
KINDERSLEY     CLOUDY    45  27  49 E21G28    30.21F
LLOYDMINSTER   CLOUDY    46  27  46 SE12      30.22S
PRINCE ALBERT  CLOUDY    32  27  80 E7        30.34F
REGINA         MOCLDY    37  30  75 SE16      30.35R
YORKTON        CLEAR     30  27  86 S3        30.40S
N. BATTLEFORD  CLOUDY    45  28  53 SE12G17   30.28F
LA RONGE       PTCLDY    36  25  64 S7        30.34F
SASKATOON      MOCLDY    41  27  56 SE12      30.33R
SWIFT CURRENT  CLOUDY    43  25  49 E15       30.20S
$$
NOTE: THESE ARE AUTOMATED STATIONS WITH LIMITED QUALITY CONTROL
      "FAIR" INDICATES FEW OR NO CLOUDS BELOW 12,000 FEET WITH NO
      SIGNIFICANT WEATHER AND/OR OBSTRUCTIONS TO VISIBILITY.
      SKY/WX - SKY CONDITION AND SIGNIFICANT WEATHER.
      TMP - AIR TEMPERATURE.    DP   - DEWPOINT TEMPERATURE.
      RH  - RELATIVE HUMIDITY.  PRES - PRESSURE.
      HX  - HEAT INDEX.         WCI  - WIND CHILL INDEX.
$


USA.gov is the U.S. government's official web portal to all federal, state and local government web resources and services.